Weather History for Clintonville, WI

Change the Weather History Date:

Tuesday, July 9, 2013

  Actual Average Record
Temperature  
Mean Temperature 72 °F -  
Max Temperature 80 °F 82 °F 96 °F (1988)
Min Temperature 64 °F 59 °F 44 °F (1953)
Cooling Degree Days 7    
Growing Degree Days 22 (Base 50)    
Moisture  
Dew Point 68 °F    
Average Humidity 86    
Maximum Humidity 100    
Minimum Humidity 65    
Precipitation  
Precipitation 0.15 in - - ()
Sea Level Pressure  
Sea Level Pressure 29.89 in    
Wind  
Wind Speed 4 mph (SSW)    
Max Wind Speed 15 mph    
Max Gust Speed 18 mph    
Visibility 7 miles    
Events Fog , Rain    
Averages and records for this station are not official NWS values.
T = Trace of Precipitation, MM = Missing Value Source: NWS Daily Summary

Daily Weather History Graph

Daily Weather History Graph

Search for Another Location

Airport:

Trip Planner

Search our weather history database for the weather conditions in past years. The results will help you decide how hot, cold, wet, or windy it might be!

Date:

Astronomy

Jul. 09, 2013 Rise Set
Actual Time 5:19 AM CDT 8:40 PM CDT
Civil Twilight 4:42 AM CDT 9:16 PM CDT
Nautical Twilight 3:55 AM CDT 10:04 PM CDT
Astronomical Twilight 2:56 AM CDT 11:02 PM CDT
Moon 6:48 AM CDT (7/9) 9:11 PM CDT (7/9)
Length of Visible Light 16h 34m
Length of Day
15h 21m
New Moon, 2% of the Moon is Illuminated
Jul 9
New Moon
Jul 15
First Quarter
Jul 22
Full
Jul 29
Last Quarter
Aug 6
New

Hourly Weather History & Observations

Time (CDT) Temp. Heat Index Dew Point Humidity Pressure Visibility Wind Dir Wind Speed Gust Speed Precip Events Conditions
12:15 AM 68.0 °F - 68.0 °F 100% 30.00 in 10.0 mi Calm Calm - N/A   Clear
12:35 AM 68.0 °F - 66.2 °F 94% 29.99 in 5.0 mi Calm Calm - N/A   Clear
12:55 AM 68.0 °F - 68.0 °F 100% 30.00 in 5.0 mi Calm Calm - N/A   Clear
1:15 AM 68.0 °F - 68.0 °F 100% 30.01 in 5.0 mi Calm Calm - N/A   Clear
1:35 AM 68.0 °F - 66.2 °F 94% 30.01 in 7.0 mi Calm Calm - N/A   Clear
1:55 AM 68.0 °F - 68.0 °F 100% 30.00 in 5.0 mi Calm Calm - N/A   Clear
2:15 AM 66.2 °F - 66.2 °F 100% 30.00 in 4.0 mi Calm Calm - N/A   Scattered Clouds
2:35 AM 68.0 °F - 66.2 °F 94% 30.00 in 4.0 mi Calm Calm - N/A   Scattered Clouds
2:55 AM 68.0 °F - 66.2 °F 94% 30.00 in 5.0 mi Calm Calm - N/A   Clear
3:15 AM 64.4 °F - 64.4 °F 100% 30.00 in 1.8 mi ENE 3.5 mph - N/A   Scattered Clouds
3:35 AM 64.4 °F - 64.4 °F 100% 29.99 in 2.5 mi Calm Calm - N/A   Scattered Clouds
3:55 AM 64.4 °F - 64.4 °F 100% 29.99 in 0.8 mi Calm Calm - N/A   Overcast
4:15 AM 66.2 °F - 64.4 °F 94% 29.99 in 0.2 mi Calm Calm - N/A Fog Fog
4:35 AM 64.4 °F - 64.4 °F 100% 29.99 in 0.2 mi Calm Calm - N/A Fog Fog
4:55 AM 64.4 °F - 64.4 °F 100% 29.98 in 0.2 mi Calm Calm - N/A Fog Fog
5:15 AM 64.4 °F - 64.4 °F 100% 29.98 in 0.2 mi Calm Calm - N/A Fog Fog
5:35 AM 64.4 °F - 64.4 °F 100% 29.98 in 0.2 mi East 3.5 mph - N/A Fog Fog
5:55 AM 64.4 °F - 64.4 °F 100% 29.98 in 0.2 mi Calm Calm - N/A Fog Fog
6:15 AM 64.4 °F - 64.4 °F 100% 29.98 in 0.2 mi Calm Calm - N/A Fog Fog
6:35 AM 64.4 °F - 64.4 °F 100% 29.99 in 0.2 mi Calm Calm - N/A Fog Fog
6:55 AM 64.4 °F - 64.4 °F 100% 29.99 in 0.2 mi Calm Calm - N/A Fog Fog
7:15 AM 66.2 °F - 66.2 °F 100% 29.98 in 0.2 mi Calm Calm - N/A Fog Fog
7:35 AM 68.0 °F - 68.0 °F 100% 29.98 in 0.2 mi Calm Calm - N/A Fog Fog
7:55 AM 68.0 °F - 68.0 °F 100% 29.97 in 0.2 mi SE 4.6 mph - N/A Fog Fog
8:15 AM 68.0 °F - 68.0 °F 100% 29.97 in 7.0 mi SSE 3.5 mph - N/A   Mostly Cloudy
8:35 AM 69.8 °F - 69.8 °F 100% 29.97 in 10.0 mi SSE 4.6 mph - N/A   Scattered Clouds
8:55 AM 73.4 °F - 69.8 °F 88% 29.97 in 10.0 mi South 6.9 mph - N/A   Clear
9:15 AM 75.2 °F - 68.0 °F 78% 29.95 in 10.0 mi SE 4.6 mph - N/A   Clear
9:35 AM 77.0 °F - 68.0 °F 74% 29.95 in 10.0 mi South 9.2 mph - N/A   Clear
10:15 AM 77.0 °F - 68.0 °F 74% 29.95 in 10.0 mi SSE 10.4 mph - N/A   Clear
10:35 AM 78.8 °F - 68.0 °F 69% 29.94 in 10.0 mi SSE 10.4 mph - N/A   Clear
10:55 AM 80.6 °F 83.2 °F 68.0 °F 65% 29.92 in 10.0 mi SE 10.4 mph - N/A   Clear
11:15 AM 78.8 °F - 68.0 °F 69% 29.92 in 10.0 mi South 10.4 mph - N/A   Clear
11:35 AM 78.8 °F - 68.0 °F 69% 29.91 in 10.0 mi SSE 11.5 mph - N/A   Clear
11:55 AM 77.0 °F - 66.2 °F 69% 29.91 in 10.0 mi SSE 9.2 mph - N/A   Clear
12:15 PM 77.0 °F - 68.0 °F 74% 29.91 in 10.0 mi SSE 6.9 mph - N/A   Scattered Clouds
12:35 PM 75.2 °F - 68.0 °F 78% 29.90 in 10.0 mi SSE 8.1 mph - N/A Rain Light Rain
12:55 PM 73.4 °F - 69.8 °F 88% 29.91 in 2.5 mi South 6.9 mph - 0.11 in Rain Heavy Rain
1:15 PM 73.4 °F - 71.6 °F 94% 29.89 in 5.0 mi South 9.2 mph - 0.01 in Rain Rain
1:35 PM 73.4 °F - 71.6 °F 94% 29.87 in 10.0 mi South 9.2 mph - 0.01 in   Mostly Cloudy
1:55 PM 73.4 °F - 71.6 °F 94% 29.86 in 10.0 mi SSW 8.1 mph - 0.01 in   Scattered Clouds
2:15 PM 73.4 °F - 69.8 °F 88% 29.86 in 10.0 mi South 6.9 mph - N/A   Mostly Cloudy
2:35 PM 73.4 °F - 69.8 °F 88% 29.85 in 10.0 mi South 8.1 mph - N/A   Mostly Cloudy
2:55 PM 73.4 °F - 69.8 °F 88% 29.85 in 10.0 mi South 5.8 mph - N/A   Overcast
3:15 PM 77.0 °F - 69.8 °F 78% 29.84 in 10.0 mi SSW 10.4 mph - N/A   Scattered Clouds
3:35 PM 78.8 °F - 69.8 °F 74% 29.83 in 10.0 mi South 10.4 mph 17.3 mph N/A   Scattered Clouds
3:55 PM 78.8 °F - 69.8 °F 74% 29.83 in 10.0 mi SSW 15.0 mph 18.4 mph N/A   Mostly Cloudy
4:15 PM 78.8 °F - 69.8 °F 74% 29.82 in 10.0 mi SSW 10.4 mph - N/A   Overcast
4:35 PM 80.6 °F 83.9 °F 69.8 °F 70% 29.82 in 10.0 mi South 10.4 mph - N/A   Overcast
4:55 PM 80.6 °F 83.9 °F 69.8 °F 70% 29.81 in 10.0 mi SSW 15.0 mph 18.4 mph N/A   Overcast
5:15 PM 80.6 °F 83.9 °F 69.8 °F 70% 29.79 in 10.0 mi SSW 11.5 mph - N/A   Mostly Cloudy
5:35 PM 80.6 °F 83.9 °F 69.8 °F 70% 29.79 in 10.0 mi South 11.5 mph 16.1 mph N/A   Mostly Cloudy
5:55 PM 78.8 °F - 69.8 °F 74% 29.78 in 10.0 mi SSW 11.5 mph - N/A   Mostly Cloudy
6:15 PM 78.8 °F - 69.8 °F 74% 29.77 in 10.0 mi SSW 10.4 mph - N/A   Overcast
6:35 PM 75.2 °F - 71.6 °F 89% 29.76 in 5.0 mi South 12.7 mph - 0.03 in Rain Light Rain
6:55 PM 77.0 °F - 71.6 °F 83% 29.76 in 10.0 mi SSW 6.9 mph - 0.03 in   Mostly Cloudy
7:15 PM 78.8 °F - 73.4 °F 83% 29.75 in 10.0 mi SSW 6.9 mph - N/A   Scattered Clouds
7:35 PM 77.0 °F - 73.4 °F 89% 29.76 in 10.0 mi SW 5.8 mph - N/A   Mostly Cloudy
7:55 PM 78.8 °F - 73.4 °F 83% 29.76 in 10.0 mi WSW 8.1 mph - N/A   Mostly Cloudy
8:15 PM 78.8 °F - 71.6 °F 78% 29.76 in 10.0 mi West 9.2 mph - N/A   Scattered Clouds
8:35 PM 77.0 °F - 71.6 °F 83% 29.76 in 10.0 mi West 6.9 mph - N/A   Scattered Clouds
8:55 PM 77.0 °F - 71.6 °F 83% 29.77 in 10.0 mi West 6.9 mph - N/A   Clear
9:15 PM 77.0 °F - 68.0 °F 74% 29.78 in 10.0 mi West 10.4 mph - N/A   Clear
9:35 PM 77.0 °F - 68.0 °F 74% 29.78 in 10.0 mi West 8.1 mph - N/A   Clear
9:55 PM 75.2 °F - 68.0 °F 78% 29.79 in 10.0 mi WSW 5.8 mph - N/A   Clear
10:15 PM 73.4 °F - 68.0 °F 83% 29.79 in 10.0 mi West 5.8 mph - N/A   Clear
10:35 PM 73.4 °F - 68.0 °F 83% 29.80 in 10.0 mi WSW 5.8 mph - N/A   Clear
10:55 PM 73.4 °F - 68.0 °F 83% 29.80 in 10.0 mi WSW 4.6 mph - N/A   Clear
11:15 PM 71.6 °F - 68.0 °F 88% 29.80 in 10.0 mi WSW 5.8 mph - N/A   Clear
11:35 PM 71.6 °F - 66.2 °F 83% 29.81 in 10.0 mi WSW 4.6 mph - N/A   Clear
11:55 PM 71.6 °F - 66.2 °F 83% 29.80 in 10.0 mi WSW 4.6 mph - N/A   Clear